EA5AFP-10 Weather Reports


time (UTC)temp
C
wind
direction
speed
KPH
gust
KPH
rain 1hr
cm
rain 24hr
cm
rain mn
cm
humidity
%
barometer
mb
20260508070618 13 315 4.8 6.4 0.00 0.00 0.00 9 1009.3
20260508070150 13 292 4.8 6.4 0.00 0.00 0.00 9 1009.4
20260508065701 13 270 4.8 9.7 0.00 0.00 0.00 9 1009.4
20260508065658 13 270 4.8 9.7 0.00 0.00 0.00 9 1009.4
20260508065519 13 270 4.8 9.7 0.00 0.00 0.00 9 1009.4
20260508065117 13 270 4.8 4.8 0.00 0.00 0.00 9 1009.4
20260508064622 13 292 3.2 3.2 0.00 0.00 0.00 9 1009.2
20260508064557 13 292 3.2 3.2 0.00 0.00 0.00 9 1009.2
20260508064129 13 315 0.0 1.6 0.00 0.00 0.00 9 1009.3
20260508063704 13 292 1.6 3.2 0.00 0.00 0.00 9 1009.2
20260508063659 13 270 3.2 4.8 0.00 0.00 0.00 9 1009.2
20260508063209 13 292 4.8 6.4 0.00 0.00 0.00 9 1009.3
20260508062718 12 292 8.0 9.7 0.00 0.00 0.00 9 1009.2
20260508062714 12 292 8.0 9.7 0.00 0.00 0.00 9 1009.2
20260508062305 12 292 4.8 6.4 0.00 0.00 0.00 9 1009.0
20260508061830 12 292 4.8 4.8 0.00 0.00 0.00 9 1008.8
20260508061427 12 292 6.4 9.7 0.00 0.00 0.00 9 1008.9
20260508061355 13 315 4.8 6.4 0.00 0.00 0.00 9 1008.9
20260508061022 12 292 6.4 9.7 0.00 0.00 0.00 9 1008.9
20260508060607 12 337 3.2 4.8 0.00 0.00 0.00 9 1009.1
20260508060112 12 292 3.2 3.2 0.00 0.00 0.00 9 1009.3
20260508055700 12 292 4.8 6.4 0.00 0.00 0.00 9 1009.1
20260508055657 12 292 4.8 6.4 0.00 0.00 0.00 9 1009.1
20260508055411 12 292 4.8 6.4 0.00 0.00 0.00 9 1009.2
20260508054952 12 315 3.2 4.8 0.00 0.00 0.00 9 1009.1
20260508054705 12 270 4.8 6.4 0.00 0.00 0.00 9 1009.1
20260508054532 12 270 4.8 6.4 0.00 0.00 0.00 9 1009.2
20260508054048 12 292 3.2 3.2 0.00 0.00 0.00 9 1008.9
20260508053707 12 292 3.2 4.8 0.00 0.00 0.00 9 1008.8
20260508053632 12 292 3.2 3.2 0.00 0.00 0.00 9 1008.7
20260508053207 12 292 3.2 4.8 0.00 0.00 0.00 9 1008.6
20260508052716 12 292 3.2 4.8 0.00 0.00 0.00 9 1008.5
20260508052712 12 292 3.2 4.8 0.00 0.00 0.00 9 1008.5
20260508052409 12 292 3.2 4.8 0.00 0.00 0.00 9 1008.5
20260508051914 12 292 3.2 4.8 0.00 0.00 0.00 9 1008.3
20260508051653 12 292 3.2 3.2 0.00 0.00 0.00 9 1008.4
20260508051442 12 270 3.2 4.8 0.00 0.00 0.00 9 1008.4
20260508051039 12 270 3.2 4.8 0.00 0.00 0.00 9 1008.4
20260508050653 12 270 1.6 3.2 0.00 0.00 0.00 9 1008.3
20260508050619 12 270 1.6 3.2 0.00 0.00 0.00 9 1008.3
20260508050154 11 292 1.6 3.2 0.00 0.00 0.00 9 1008.2
20260508045659 11 292 4.8 4.8 0.00 0.00 0.00 9 1008.1
20260508045342 11 292 4.8 4.8 0.00 0.00 0.00 9 1008.2
20260508044847 11 292 4.8 4.8 0.00 0.00 0.00 9 1008.2
20260508044405 11 292 3.2 3.2 0.00 0.00 0.00 9 1008.2
20260508044002 11 292 3.2 4.8 0.00 0.00 0.00 9 1008.1
20260508043538 11 292 3.2 4.8 0.00 0.00 0.00 9 1008.2
20260508043130 11 292 4.8 6.4 0.00 0.00 0.00 9 1008.1
20260508042727 11 292 3.2 3.2 0.00 0.00 0.00 9 1008.0
20260508042426 11 270 3.2 4.8 0.00 0.00 0.00 9 1008.0
20260508042252 11 270 4.8 4.8 0.00 0.00 0.00 9 1007.9
20260508042001 11 270 4.8 4.8 0.00 0.00 0.00 9 1007.9
20260508041516 11 270 1.6 3.2 0.00 0.00 0.00 9 1007.9
20260508041056 11 292 1.6 3.2 0.00 0.00 0.00 9 1007.9
20260508040556 11 292 3.2 4.8 0.00 0.00 0.00 9 1008.0
20260508040106 11 270 3.2 3.2 0.00 0.00 0.00 9 1008.0
20260508035651 11 247 4.8 4.8 0.00 0.00 0.00 9 1008.0
20260508035451 11 292 4.8 6.4 0.00 0.00 0.00 9 1008.1
20260508035017 11 292 3.2 4.8 0.00 0.00 0.00 9 1008.0
20260508034526 11 0 0.0 0.0 0.00 0.00 0.00 9 1008.0
20260508034055 11 292 3.2 3.2 0.00 0.00 0.00 9 1007.8
20260508033714 11 292 1.6 3.2 0.00 0.00 0.00 9 1007.8
20260508033637 11 292 1.6 3.2 0.00 0.00 0.00 9 1007.8
20260508033212 11 292 3.2 3.2 0.00 0.00 0.00 9 1007.9
20260508032720 11 292 1.6 3.2 0.00 0.00 0.00 9 1007.9
20260508032717 11 292 1.6 3.2 0.00 0.00 0.00 9 1007.9
20260508032226 11 292 3.2 4.8 0.00 0.00 0.00 9 1008.0
20260508031824 11 292 4.8 4.8 0.00 0.00 0.00 9 1007.9
20260508031353 11 270 3.2 4.8 0.00 0.00 0.00 9 1008.0
20260508031012 11 292 1.6 3.2 0.00 0.00 0.00 9 1008.0
20260508030558 11 292 1.6 1.6 0.00 0.00 0.00 9 1008.3
20260508030525 11 292 1.6 1.6 0.00 0.00 0.00 9 1008.3
20260508030109 11 292 3.2 3.2 0.00 0.00 0.00 9 1008.2
20260508025657 11 292 3.2 4.8 0.00 0.00 0.00 9 1008.2
20260508025517 11 292 3.2 4.8 0.00 0.00 0.00 9 1008.2
20260508025409 11 292 3.2 4.8 0.00 0.00 0.00 9 1008.2
20260508025045 11 270 4.8 6.4 0.00 0.00 0.00 9 1008.4
20260508024530 11 270 4.8 4.8 0.00 0.00 0.00 9 1008.2
20260508024046 11 270 3.2 4.8 0.00 0.00 0.00 9 1008.5
20260508023629 11 270 3.2 3.2 0.00 0.00 0.00 9 1008.4
20260508023204 11 247 0.0 3.2 0.00 0.00 0.00 9 1008.5
20260508022710 11 292 0.0 1.6 0.00 0.00 0.00 9 1008.6
20260508022441 11 292 0.0 1.6 0.00 0.00 0.00 9 1008.4
20260508022250 11 292 1.6 3.2 0.00 0.00 0.00 9 1008.6
20260508022011 11 292 3.2 3.2 0.00 0.00 0.00 9 1008.5
20260508021520 11 292 1.6 3.2 0.00 0.00 0.00 9 1008.5
20260508021353 11 292 3.2 3.2 0.00 0.00 0.00 9 1008.6
20260508021101 11 292 3.2 3.2 0.00 0.00 0.00 9 1008.5
20260508020601 11 292 1.6 3.2 0.00 0.00 0.00 9 1008.5
20260508020528 11 292 1.6 3.2 0.00 0.00 0.00 9 1008.5
20260508020111 11 292 1.6 3.2 0.00 0.00 0.00 9 1008.6
20260508015704 11 292 3.2 3.2 0.00 0.00 0.00 9 1008.6
20260508015701 11 292 3.2 3.2 0.00 0.00 0.00 9 1008.6
20260508015526 11 292 3.2 3.2 0.00 0.00 0.00 9 1008.6
20260508015122 11 292 3.2 4.8 0.00 0.00 0.00 9 1008.5
20260508014627 11 270 3.2 4.8 0.00 0.00 0.00 9 1008.5
20260508014138 12 270 4.8 6.4 0.00 0.00 0.00 9 1008.6
20260508013711 12 292 4.8 4.8 0.00 0.00 0.00 9 1008.6
20260508013218 12 292 3.2 3.2 0.00 0.00 0.00 9 1008.8
20260508012728 12 337 1.6 3.2 0.00 0.00 0.00 9 1008.8
20260508012723 12 337 1.6 3.2 0.00 0.00 0.00 9 1008.8
20260508012403 12 315 1.6 3.2 0.00 0.00 0.00 9 1008.8
20260508012213 12 315 1.6 3.2 0.00 0.00 0.00 9 1008.9
20260508011908 12 292 1.6 3.2 0.00 0.00 0.00 9 1008.8
20260508011434 12 292 3.2 4.8 0.00 0.00 0.00 9 1009.0
20260508011351 12 292 4.8 4.8 0.00 0.00 0.00 9 1009.1
20260508011031 12 315 1.6 3.2 0.00 0.00 0.00 9 1009.1
20260508010600 12 315 4.8 4.8 0.00 0.00 0.00 9 1009.2
20260508010524 12 315 4.8 4.8 0.00 0.00 0.00 9 1009.2
20260508010108 12 315 3.2 3.2 0.00 0.00 0.00 9 1009.0
20260508005656 12 315 3.2 4.8 0.00 0.00 0.00 9 1009.3
20260508005652 12 315 3.2 4.8 0.00 0.00 0.00 9 1009.3
20260508005538 12 315 3.2 4.8 0.00 0.00 0.00 9 1009.3
20260508005415 12 337 4.8 4.8 0.00 0.00 0.00 9 1009.2
20260508005002 12 337 1.6 3.2 0.00 0.00 0.00 9 1009.3
20260508004620 12 292 3.2 4.8 0.00 0.00 0.00 9 1009.3
20260508004602 12 292 4.8 6.4 0.00 0.00 0.00 9 1009.2
20260508004122 12 292 4.8 4.8 0.00 0.00 0.00 9 1009.3
20260508003632 12 292 3.2 3.2 0.00 0.00 0.00 9 1009.3
20260508003156 12 247 3.2 4.8 0.00 0.00 0.00 9 1009.3
20260508002725 12 315 4.8 6.4 0.00 0.00 0.00 9 1009.3
20260508002722 12 315 4.8 6.4 0.00 0.00 0.00 9 1009.3
20260508002449 12 270 4.8 4.8 0.00 0.00 0.00 9 1009.4
20260508002307 12 270 4.8 4.8 0.00 0.00 0.00 9 1009.2
20260508002014 12 270 3.2 3.2 0.00 0.00 0.00 9 1009.2
20260508001529 12 270 4.8 4.8 0.00 0.00 0.00 9 1009.5
20260508001107 12 270 3.2 4.8 0.00 0.00 0.00 9 1009.2
20260508000618 12 292 1.6 3.2 0.00 0.00 0.00 9 1009.3
20260508000150 12 315 1.6 3.2 0.00 0.00 0.00 9 1009.6
20260507235659 12 292 1.6 3.2 0.00 0.00 0.00 9 1009.5
20260507235521 12 292 1.6 3.2 0.00 0.00 0.00 9 1009.5
20260507235428 12 315 3.2 3.2 0.00 0.00 0.00 9 1009.7
20260507234932 12 292 1.6 3.2 0.00 0.00 0.00 9 1009.6
20260507234556 12 292 1.6 3.2 0.00 0.00 0.00 9 1009.7
20260507234451 12 292 1.6 3.2 0.00 0.00 0.00 9 1009.6
20260507234024 12 292 1.6 3.2 0.00 0.00 0.00 9 1009.7
20260507233658 12 292 4.8 4.8 0.00 0.00 0.00 9 1009.7
20260507233612 12 292 4.8 4.8 0.00 0.00 0.00 9 1009.7
20260507233205 12 292 3.2 4.8 0.00 0.00 0.00 9 1009.7
20260507232716 12 270 4.8 4.8 0.00 0.00 0.00 9 1009.8
20260507232713 12 270 4.8 4.8 0.00 0.00 0.00 9 1009.8
20260507232521 12 292 3.2 4.8 0.00 0.00 0.00 9 1010.0
20260507232411 12 292 3.2 4.8 0.00 0.00 0.00 9 1009.9
20260507232007 12 315 3.2 4.8 0.00 0.00 0.00 9 1009.9
20260507231600 12 0 0.0 0.0 0.00 0.00 0.00 9 1009.8
20260507231124 12 0 0.0 0.0 0.00 0.00 0.00 9 1009.8
20260507230637 12 0 0.0 3.2 0.00 0.00 0.00 9 1010.1
20260507230208 12 270 4.8 6.4 0.00 0.00 0.00 9 1009.8
20260507225725 12 292 4.8 4.8 0.00 0.00 0.00 9 1009.8
20260507225722 12 292 4.8 4.8 0.00 0.00 0.00 9 1009.8
20260507225447 12 292 3.2 3.2 0.00 0.00 0.00 9 1009.9
20260507225337 12 270 1.6 3.2 0.00 0.00 0.00 9 1010.0
20260507224921 12 0 0.0 0.0 0.00 0.00 0.00 9 1009.9
20260507224530 12 270 3.2 3.2 0.00 0.00 0.00 9 1009.9
20260507224509 12 270 1.6 3.2 0.00 0.00 0.00 9 1009.8
20260507224057 12 292 1.6 3.2 0.00 0.00 0.00 9 1009.9
20260507223540 12 270 4.8 6.4 0.00 0.00 0.00 9 1009.8
20260507223135 12 292 1.6 3.2 0.00 0.00 0.00 9 1009.7
20260507222735 12 247 0.0 1.6 0.00 0.00 0.00 9 1009.7
20260507222731 12 247 0.0 1.6 0.00 0.00 0.00 9 1009.7
20260507222356 12 270 4.8 6.4 0.00 0.00 0.00 9 1009.6
20260507221952 12 270 8.0 9.7 0.00 0.00 0.00 9 1009.5
20260507221548 12 292 4.8 4.8 0.00 0.00 0.00 9 1009.6
20260507221109 12 292 6.4 9.7 0.00 0.00 0.00 9 1009.6
20260507220622 12 292 4.8 6.4 0.00 0.00 0.00 9 1009.6
20260507220153 12 270 8.0 9.7 0.00 0.00 0.00 9 1009.6
20260507215702 12 292 3.2 4.8 0.00 0.00 0.00 9 1009.6
20260507215510 12 292 3.2 4.8 0.00 0.00 0.00 9 1009.6
20260507215046 12 315 6.4 9.7 0.00 0.00 0.00 9 1009.6
20260507214738 12 292 6.4 9.7 0.00 0.00 0.00 9 1009.6
20260507214611 12 315 4.8 6.4 0.00 0.00 0.00 9 1009.4
20260507214557 12 292 6.4 9.7 0.00 0.00 0.00 9 1009.6
20260507214126 12 315 4.8 9.7 0.00 0.00 0.00 9 1009.5
20260507213700 12 315 4.8 6.4 0.00 0.00 0.00 9 1009.4
20260507213636 12 292 1.6 3.2 0.00 0.00 0.00 9 1009.3
20260507213207 12 292 1.6 3.2 0.00 0.00 0.00 9 1009.5
20260507212717 13 247 0.0 3.2 0.00 0.00 0.00 9 1009.2
20260507212506 12 0 0.0 0.0 0.00 0.00 0.00 9 1009.2
20260507212423 12 0 0.0 0.0 0.00 0.00 0.00 9 1009.2
20260507211946 12 0 0.0 0.0 0.00 0.00 0.00 9 1009.1
20260507211544 12 315 0.0 3.2 0.00 0.00 0.00 9 1009.1
20260507211457 12 315 1.6 3.2 0.00 0.00 0.00 9 1009.1
20260507211027 12 292 1.6 3.2 0.00 0.00 0.00 9 1009.1
20260507210622 12 315 4.8 4.8 0.00 0.00 0.00 9 1009.1
20260507210152 12 0 0.0 0.0 0.00 0.00 0.00 9 1009.1
20260507205706 12 90 1.6 1.6 0.00 0.00 0.00 9 1009.0
20260507205703 12 90 1.6 1.6 0.00 0.00 0.00 9 1009.0
20260507205529 12 90 1.6 1.6 0.00 0.00 0.00 9 1009.0
20260507205505 12 90 1.6 3.2 0.00 0.00 0.00 9 1009.0
20260507205109 13 0 0.0 0.0 0.00 0.00 0.00 9 1009.0
20260507204624 13 337 1.6 1.6 0.00 0.00 0.00 9 1009.0
20260507204521 13 337 1.6 1.6 0.00 0.00 0.00 9 1008.9
20260507204129 13 337 1.6 1.6 0.00 0.00 0.00 9 1008.9
20260507203701 13 0 0.0 1.6 0.00 0.00 0.00 9 1008.9
20260507203209 13 0 0.0 0.0 0.00 0.00 0.00 9 1008.9
20260507202717 13 0 0.0 0.0 0.00 0.00 0.00 9 1009.0
20260507202714 13 0 0.0 0.0 0.00 0.00 0.00 9 1009.0
20260507202407 13 0 0.0 0.0 0.00 0.00 0.00 9 1009.1
20260507202306 13 0 0.0 0.0 0.00 0.00 0.00 9 1009.1
20260507201912 13 0 0.0 0.0 0.00 0.00 0.00 9 1009.0
20260507201439 13 0 0.0 0.0 0.00 0.00 0.00 9 1009.0
20260507201037 13 67 3.2 4.8 0.00 0.00 0.00 9 1009.1
20260507200550 13 270 0.0 1.6 0.00 0.00 0.00 9 1009.1
20260507200121 13 0 0.0 1.6 0.00 0.00 0.00 9 1009.0
20260507195657 13 270 0.0 3.2 0.00 0.00 0.00 9 1009.1
20260507195431 13 270 0.0 3.2 0.00 0.00 0.00 9 1009.1
20260507194936 13 0 0.0 0.0 0.00 0.00 0.00 9 1009.1
20260507194459 13 0 0.0 1.6 0.00 0.00 0.00 9 1009.0
20260507194026 13 0 0.0 0.0 0.00 0.00 0.00 9 1009.0
20260507193606 13 270 3.2 4.8 0.00 0.00 0.00 9 1008.9
20260507193135 13 292 3.2 4.8 0.00 0.00 0.00 9 1009.1
20260507192728 13 292 8.0 9.7 0.00 0.00 0.00 9 1009.0
20260507192725 13 292 8.0 9.7 0.00 0.00 0.00 9 1009.0
20260507192601 13 292 3.2 4.8 0.00 0.00 0.00 9 1008.9
20260507192358 13 292 6.4 9.7 0.00 0.00 0.00 9 1009.1
20260507191946 13 292 9.7 14.5 0.00 0.00 0.00 9 1008.9
20260507191545 13 292 6.4 9.7 0.00 0.00 0.00 9 1008.9
20260507191105 13 292 9.7 12.9 0.00 0.00 0.00 9 1008.9
20260507190618 13 270 9.7 14.5 0.00 0.00 0.00 9 1009.1
20260507190149 13 270 9.7 9.7 0.00 0.00 0.00 9 1009.0
20260507185701 13 270 20.9 32.2 0.00 0.00 0.00 9 1008.7
20260507185658 13 270 20.9 32.2 0.00 0.00 0.00 9 1008.7
20260507185428 13 270 17.7 24.1 0.00 0.00 0.00 9 1008.6
20260507185306 14 292 14.5 20.9 0.00 0.00 0.00 9 1008.5
20260507185021 14 292 16.1 20.9 0.00 0.00 0.00 9 1008.5
20260507184542 14 292 9.7 12.9 0.00 0.00 0.00 9 1008.3
20260507184410 14 292 9.7 12.9 0.00 0.00 0.00 9 1008.2
20260507184104 14 292 4.8 9.7 0.00 0.00 0.00 9 1008.3
20260507183614 14 270 0.0 3.2 0.00 0.00 0.00 9 1008.2
20260507183543 14 67 1.6 3.2 0.00 0.00 0.00 9 1008.1
20260507183127 14 180 3.2 6.4 0.00 0.00 0.00 9 1008.2
20260507182715 14 67 0.0 3.2 0.00 0.00 0.00 9 1008.1
20260507182712 14 67 0.0 3.2 0.00 0.00 0.00 9 1008.1
20260507182350 14 45 3.2 4.8 0.00 0.00 0.00 9 1008.0
20260507181858 14 315 4.8 9.7 0.00 0.00 0.00 9 1007.8
20260507181358 14 292 8.0 9.7 0.00 0.00 0.00 8 1007.6
20260507180946 14 270 8.0 9.7 0.00 0.00 0.00 8 1007.6
20260507180521 15 270 19.3 20.9 0.00 0.00 0.00 8 1007.7
20260507180108 15 315 3.2 4.8 0.00 0.00 0.00 8 1007.9
20260507175658 15 315 8.0 9.7 0.00 0.00 0.00 7 1007.6
20260507175413 14 315 9.7 14.5 0.00 0.00 0.00 8 1007.6
20260507175243 16 337 8.0 9.7 0.00 0.00 0.00 8 1007.6
20260507174921 16 337 8.0 9.7 0.00 0.00 0.00 8 1008.0
20260507174419 16 292 6.4 9.7 0.00 0.00 0.00 8 1007.5
20260507174010 16 292 6.4 9.7 0.00 0.00 0.00 7 1007.3
20260507173602 17 315 11.3 16.1 0.00 0.00 0.00 8 1007.5
20260507173545 18 337 4.8 6.4 0.00 0.00 0.00 8 1007.4
20260507173131 18 0 1.6 3.2 0.00 0.00 0.00 7 1007.4
20260507172725 18 0 0.0 0.0 0.00 0.00 0.00 7 1007.3
20260507172721 18 0 0.0 0.0 0.00 0.00 0.00 7 1007.3
20260507172556 18 0 0.0 0.0 0.00 0.00 0.00 7 1007.3
20260507172350 18 0 0.0 1.6 0.00 0.00 0.00 7 1007.3
20260507171945 18 90 1.6 4.8 0.00 0.00 0.00 7 1007.3
20260507171541 18 90 0.0 1.6 0.00 0.00 0.00 7 1007.3
20260507171102 18 90 1.6 4.8 0.00 0.00 0.00 7 1007.4
20260507170643 18 90 3.2 4.8 0.00 0.00 0.00 7 1007.2
20260507170614 18 67 0.0 3.2 0.00 0.00 0.00 7 1007.3
20260507170146 18 67 0.0 1.6 0.00 0.00 0.00 7 1007.2
20260507165658 18 67 0.0 1.6 0.00 0.00 0.00 7 1007.2
20260507165656 18 67 0.0 1.6 0.00 0.00 0.00 7 1007.2
20260507165441 18 0 0.0 1.6 0.00 0.00 0.00 7 1007.2
20260507165335 18 157 0.0 3.2 0.00 0.00 0.00 7 1007.2
20260507165016 18 22 1.6 3.2 0.00 0.00 0.00 7 1007.2
20260507164527 18 90 1.6 4.8 0.00 0.00 0.00 7 1007.3
20260507164500 18 112 0.0 3.2 0.00 0.00 0.00 7 1007.2
20260507164054 18 90 0.0 3.2 0.00 0.00 0.00 7 1007.3
20260507163601 18 112 8.0 9.7 0.00 0.00 0.00 7 1007.2
20260507163545 18 135 6.4 9.7 0.00 0.00 0.00 7 1007.1
20260507163132 18 0 0.0 0.0 0.00 0.00 0.00 7 1007.2
20260507162722 18 112 4.8 6.4 0.00 0.00 0.00 7 1007.1
20260507162440 18 90 0.0 3.2 0.00 0.00 0.00 7 1007.1
20260507161946 18 90 0.0 3.2 0.00 0.00 0.00 7 1007.2
20260507161543 18 112 4.8 6.4 0.00 0.00 0.00 7 1007.1
20260507161103 18 112 4.8 9.7 0.00 0.00 0.00 7 1006.9
20260507160617 18 135 8.0 9.7 0.00 0.00 0.00 7 1007.0
20260507160147 18 135 8.0 9.7 0.00 0.00 0.00 7 1006.8
20260507155657 18 0 0.0 1.6 0.00 0.00 0.00 7 1006.8
20260507155455 18 90 4.8 4.8 0.00 0.00 0.00 7 1006.9
20260507155000 18 90 4.8 6.4 0.00 0.00 0.00 7 1006.7
20260507154714 18 90 8.0 12.9 0.00 0.00 0.00 7 1006.9
20260507154541 18 112 9.7 14.5 0.00 0.00 0.00 7 1006.8
20260507154057 18 90 4.8 9.7 0.00 0.00 0.00 7 1006.7
20260507153640 18 112 8.0 9.7 0.00 0.00 0.00 7 1006.6
20260507153215 18 112 4.8 9.7 0.00 0.00 0.00 7 1006.5
20260507152720 18 45 9.7 12.9 0.00 0.00 0.00 7 1006.7
20260507152441 18 112 8.0 12.9 0.00 0.00 0.00 7 1006.5
20260507152011 18 90 9.7 17.7 0.00 0.00 0.00 7 1006.5
20260507151519 18 112 9.7 16.1 0.00 0.00 0.00 7 1006.6
20260507151101 18 45 4.8 6.4 0.00 0.00 0.00 7 1006.6
20260507150601 18 90 6.4 12.9 0.00 0.00 0.00 7 1006.6
20260507150528 18 90 6.4 12.9 0.00 0.00 0.00 7 1006.6
20260507150111 18 90 9.7 16.1 0.00 0.00 0.00 7 1006.7
20260507145703 18 67 9.7 12.9 0.00 0.00 0.00 7 1006.7
20260507145700 18 67 9.7 12.9 0.00 0.00 0.00 7 1006.7
20260507145506 18 90 9.7 19.3 0.00 0.00 0.00 7 1006.6
20260507145032 18 90 14.5 19.3 0.00 0.00 0.00 7 1006.8
20260507144611 18 90 9.7 16.1 0.00 0.00 0.00 7 1006.9
20260507144128 18 90 9.7 12.9 0.00 0.00 0.00 7 1007.0
20260507143709 18 112 14.5 20.9 0.00 0.00 0.00 7 1006.9
20260507143640 18 112 9.7 17.7 0.00 0.00 0.00 7 1006.9
20260507143212 18 135 9.7 16.1 0.00 0.00 0.00 7 1006.9
20260507142721 18 112 11.3 17.7 0.00 0.00 0.00 7 1006.9
20260507142430 18 90 12.9 17.7 0.00 0.00 0.00 7 1006.9
20260507142005 18 90 14.5 19.3 0.00 0.00 0.00 7 1006.9
20260507141520 18 45 9.7 14.5 0.00 0.00 0.00 7 1006.9
20260507141100 18 67 12.9 17.7 0.00 0.00 0.00 7 1006.8
20260507140600 18 112 9.7 16.1 0.00 0.00 0.00 7 1007.1
20260507140529 18 112 9.7 16.1 0.00 0.00 0.00 7 1007.1
20260507140110 18 90 12.9 19.3 0.00 0.00 0.00 7 1007.1
20260507135703 18 67 17.7 24.1 0.00 0.00 0.00 7 1007.1
20260507135659 18 67 17.7 24.1 0.00 0.00 0.00 7 1007.1
20260507135514 18 67 17.7 24.1 0.00 0.00 0.00 7 1007.1
20260507135311 19 67 14.5 20.9 0.00 0.00 0.00 7 1007.0
20260507134821 20 67 14.5 29.0 0.00 0.00 0.00 7 1007.0
20260507134553 18 157 14.5 20.9 0.00 0.00 0.00 7 1006.9
20260507134407 18 90 16.1 24.1 0.00 0.00 0.00 7 1007.0
20260507134001 19 90 14.5 24.1 0.00 0.00 0.00 7 1007.3
20260507133555 19 67 16.1 24.1 0.00 0.00 0.00 7 1007.0
20260507133135 19 112 16.1 20.9 0.00 0.00 0.00 7 1007.0
20260507132726 19 90 12.9 20.9 0.00 0.00 0.00 7 1007.1
20260507132723 19 90 12.9 20.9 0.00 0.00 0.00 7 1007.1
20260507132432 19 135 14.5 20.9 0.00 0.00 0.00 7 1007.0
20260507132250 19 90 19.3 24.1 0.00 0.00 0.00 7 1007.0
20260507132007 20 112 11.3 19.3 0.00 0.00 0.00 7 1007.1
20260507131527 20 135 16.1 24.1 0.00 0.00 0.00 7 1007.2
20260507131049 20 90 12.9 20.9 0.00 0.00 0.00 7 1007.1
20260507130600 20 112 16.1 24.1 0.00 0.00 0.00 7 1007.4
20260507130529 20 112 16.1 24.1 0.00 0.00 0.00 7 1007.4
20260507130112 20 135 14.5 17.7 0.00 0.00 0.00 7 1007.2
20260507125700 20 112 17.7 24.1 0.00 0.00 0.00 7 1007.2
20260507125313 20 112 11.3 16.1 0.00 0.00 0.00 7 1007.3
20260507124845 19 90 9.7 16.1 0.00 0.00 0.00 7 1007.4
20260507124423 20 112 16.1 20.9 0.00 0.00 0.00 7 1007.3
20260507124022 19 90 11.3 16.1 0.00 0.00 0.00 7 1007.4
20260507123535 19 112 17.7 20.9 0.00 0.00 0.00 7 1007.5
20260507123123 19 112 9.7 17.7 0.00 0.00 0.00 7 1007.7
20260507122716 19 157 9.7 16.1 0.00 0.00 0.00 7 1007.6
20260507122713 19 157 9.7 16.1 0.00 0.00 0.00 7 1007.6
20260507122558 19 157 9.7 16.1 0.00 0.00 0.00 7 1007.6
20260507122419 18 135 11.3 17.7 0.00 0.00 0.00 7 1007.6
20260507121942 18 67 9.7 14.5 0.00 0.00 0.00 7 1007.6
20260507121512 18 67 11.3 14.5 0.00 0.00 0.00 7 1007.5
20260507121046 18 90 11.3 16.1 0.00 0.00 0.00 7 1007.6
20260507120627 19 90 14.5 19.3 0.00 0.00 0.00 7 1007.6
20260507120151 19 112 12.9 17.7 0.00 0.00 0.00 7 1007.8
20260507115747 20 90 14.5 24.1 0.00 0.00 0.00 7 1007.6
20260507115701 20 90 14.5 24.1 0.00 0.00 0.00 7 1007.6
20260507115657 20 90 14.5 24.1 0.00 0.00 0.00 7 1007.6
20260507115452 20 112 14.5 17.7 0.00 0.00 0.00 7 1007.6
20260507115307 20 90 14.5 24.1 0.00 0.00 0.00 7 1007.7
20260507115008 20 67 9.7 16.1 0.00 0.00 0.00 7 1007.7
20260507114518 20 112 9.7 14.5 0.00 0.00 0.00 7 1007.9
20260507114408 19 90 9.7 19.3 0.00 0.00 0.00 7 1007.9
20260507114045 19 135 14.5 20.9 0.00 0.00 0.00 7 1008.0
20260507113552 19 112 9.7 14.5 0.00 0.00 0.00 7 1008.0
20260507113126 20 112 6.4 12.9 0.00 0.00 0.00 7 1008.1
20260507112717 19 67 6.4 9.7 0.00 0.00 0.00 7 1008.2
20260507112713 19 67 6.4 9.7 0.00 0.00 0.00 7 1008.2
20260507112559 19 67 6.4 9.7 0.00 0.00 0.00 7 1008.2
20260507112354 20 90 9.7 16.1 0.00 0.00 0.00 7 1008.1
20260507111931 20 67 11.3 16.1 0.00 0.00 0.00 7 1008.2
20260507111604 20 112 8.0 12.9 0.00 0.00 0.00 7 1008.3
20260507111516 19 90 4.8 9.7 0.00 0.00 0.00 7 1008.2
20260507111031 20 90 1.6 6.4 0.00 0.00 0.00 7 1008.3
20260507110645 20 67 11.3 16.1 0.00 0.00 0.00 7 1008.3
20260507110614 19 112 9.7 12.9 0.00 0.00 0.00 7 1008.5
20260507110149 20 90 6.4 9.7 0.00 0.00 0.00 7 1008.4
20260507105700 19 90 12.9 17.7 0.00 0.00 0.00 6 1008.4
20260507105656 19 90 12.9 17.7 0.00 0.00 0.00 6 1008.4
20260507105447 19 67 9.7 14.5 0.00 0.00 0.00 6 1008.4
20260507105307 20 112 9.7 12.9 0.00 0.00 0.00 6 1008.3
20260507105022 20 90 9.7 12.9 0.00 0.00 0.00 6 1008.3
20260507104536 20 112 9.7 12.9 0.00 0.00 0.00 6 1008.3
20260507104408 20 90 9.7 12.9 0.00 0.00 0.00 6 1008.4
20260507104117 20 135 8.0 16.1 0.00 0.00 0.00 6 1008.3
20260507103617 20 135 8.0 12.9 0.00 0.00 0.00 7 1008.5
20260507103544 19 112 8.0 14.5 0.00 0.00 0.00 7 1008.3
20260507103126 19 67 6.4 9.7 0.00 0.00 0.00 7 1008.4
20260507102717 20 90 4.8 9.7 0.00 0.00 0.00 7 1008.2
20260507102300 19 90 4.8 6.4 0.00 0.00 0.00 7 1008.3
20260507101857 19 292 0.0 3.2 0.00 0.00 0.00 7 1008.3
20260507101449 18 337 0.0 3.2 0.00 0.00 0.00 7 1008.4
20260507101353 18 315 4.8 6.4 0.00 0.00 0.00 7 1008.5
20260507100957 18 112 4.8 6.4 0.00 0.00 0.00 7 1008.4
20260507100520 19 0 0.0 0.0 0.00 0.00 0.00 7 1008.7
20260507100107 18 0 0.0 0.0 0.00 0.00 0.00 7 1008.7
20260507095700 18 90 1.6 3.2 0.00 0.00 0.00 7 1008.7
20260507095657 18 90 1.6 3.2 0.00 0.00 0.00 7 1008.7
20260507095518 18 90 1.6 3.2 0.00 0.00 0.00 7 1008.7
20260507095404 18 90 3.2 4.8 0.00 0.00 0.00 7 1008.8
20260507095022 18 112 1.6 3.2 0.00 0.00 0.00 7 1008.7
20260507094534 18 90 1.6 4.8 0.00 0.00 0.00 7 1008.9
20260507094419 18 90 3.2 4.8 0.00 0.00 0.00 7 1008.9
20260507094116 18 67 1.6 3.2 0.00 0.00 0.00 7 1008.8
20260507093616 18 315 1.6 3.2 0.00 0.00 0.00 7 1008.8
20260507093542 18 292 3.2 4.8 0.00 0.00 0.00 7 1008.8
20260507093126 18 0 0.0 0.0 0.00 0.00 0.00 7 1008.8
20260507092716 18 0 0.0 0.0 0.00 0.00 0.00 7 1008.9
20260507092714 18 0 0.0 0.0 0.00 0.00 0.00 7 1008.9
20260507092346 18 0 0.0 0.0 0.00 0.00 0.00 7 1008.9
20260507091945 18 0 0.0 3.2 0.00 0.00 0.00 7 1009.1
20260507091544 17 0 0.0 1.6 0.00 0.00 0.00 7 1008.9
20260507091104 17 112 3.2 4.8 0.00 0.00 0.00 7 1009.0
20260507090643 17 67 3.2 3.2 0.00 0.00 0.00 7 1008.9
20260507090616 17 67 4.8 6.4 0.00 0.00 0.00 7 1008.9
20260507090150 17 90 4.8 9.7 0.00 0.00 0.00 7 1008.8
20260507085657 17 90 6.4 9.7 0.00 0.00 0.00 7 1008.7
20260507085455 17 90 4.8 6.4 0.00 0.00 0.00 7 1008.7
20260507085412 17 90 4.8 6.4 0.00 0.00 0.00 7 1008.7
20260507085010 17 67 4.8 6.4 0.00 0.00 0.00 7 1008.7
20260507084518 17 67 4.8 9.7 0.00 0.00 0.00 7 1008.7
20260507084416 17 45 4.8 6.4 0.00 0.00 0.00 7 1008.7
20260507084045 17 0 1.6 3.2 0.00 0.00 0.00 7 1008.8
20260507083544 17 0 0.0 0.0 0.00 0.00 0.00 7 1008.6
20260507083126 17 292 1.6 3.2 0.00 0.00 0.00 7 1008.7
20260507082716 17 270 1.6 3.2 0.00 0.00 0.00 7 1008.4
20260507082713 17 270 1.6 3.2 0.00 0.00 0.00 7 1008.4
20260507082346 17 292 3.2 4.8 0.00 0.00 0.00 7 1008.5
20260507081455 17 315 4.8 6.4 0.00 0.00 0.00 7 1008.7
20260507080525 17 315 4.8 6.4 0.00 0.00 0.00 7 1008.6
20260507080510 17 315 4.8 6.4 0.00 0.00 0.00 7 1008.6
20260507075702 16 315 4.8 9.7 0.00 0.00 0.00 7 1008.6
20260507075442 16 315 4.8 4.8 0.00 0.00 0.00 7 1008.7
20260507075326 16 337 4.8 9.7 0.00 0.00 0.00 7 1008.7
20260507075031 16 337 4.8 9.7 0.00 0.00 0.00 7 1008.7
20260507074547 16 337 4.8 6.4 0.00 0.00 0.00 7 1008.7
20260507074127 16 315 4.8 6.4 0.00 0.00 0.00 7 1008.8
20260507073627 16 315 6.4 9.7 0.00 0.00 0.00 7 1008.7
20260507073555 16 292 8.0 9.7 0.00 0.00 0.00 7 1008.8
20260507073137 16 315 8.0 9.7 0.00 0.00 0.00 7 1008.8
20260507072725 16 292 9.7 12.9 0.00 0.00 0.00 7 1008.9
20260507072448 16 315 9.7 12.9 0.00 0.00 0.00 7 1008.7
20260507072419 16 292 8.0 9.7 0.00 0.00 0.00 7 1008.7
20260507072006 16 315 9.7 9.7 0.00 0.00 0.00 7 1008.6
20260507071523 16 292 8.0 9.7 0.00 0.00 0.00 7 1008.6
20260507071103 16 292 4.8 6.4 0.00 0.00 0.00 8 1008.5